EW4498 Weather Reports


time (UTC)temp
C
wind
direction
speed
KPH
gust
KPH
rain 1hr
cm
rain 24hr
cm
rain mn
cm
humidity
%
barometer
mb
20260509164526 13 140 8.0 14.5 0.00 0.00 0.00 44 1019.8
20260509163027 14 157 6.4 14.5 0.00 0.00 0.00 44 1019.8
20260509161523 14 109 6.4 16.1 0.00 0.00 0.00 47 1019.8
20260509160020 14 115 6.4 16.1 0.00 0.00 0.00 47 1020.0
20260509154518 14 92 11.3 19.3 0.00 0.00 0.00 47 1020.2
20260509153029 14 96 9.7 20.9 0.00 0.00 0.00 48 1020.4
20260509151514 14 77 9.7 19.3 0.00 0.00 0.00 48 1020.5
20260509150017 15 85 8.0 20.9 0.00 0.00 0.00 48 1020.6
20260509144511 15 88 9.7 19.3 0.00 0.00 0.00 47 1020.8
20260509143009 15 65 8.0 20.9 0.00 0.00 0.00 46 1020.9
20260509141507 15 74 9.7 19.3 0.00 0.00 0.00 47 1021.0
20260509140006 15 92 8.0 14.5 0.00 0.00 0.00 50 1021.2
20260509134505 15 136 9.7 19.3 0.00 0.00 0.00 47 1021.3
20260509133004 15 89 12.9 19.3 0.00 0.00 0.00 48 1021.5
20260509131604 15 60 8.0 17.7 0.00 0.00 0.00 47 1021.7
20260509130058 15 69 11.3 20.9 0.00 0.00 0.00 44 1021.9
20260509124557 15 94 6.4 14.5 0.00 0.00 0.00 44 1022.0
20260509123054 15 119 6.4 16.1 0.00 0.00 0.00 41 1022.2
20260509121553 15 108 4.8 17.7 0.00 0.00 0.00 42 1022.4
20260509120053 15 80 8.0 17.7 0.00 0.00 0.00 41 1022.5
20260509114550 14 80 9.7 19.3 0.00 0.00 0.00 39 1022.5
20260509113049 15 53 8.0 17.7 0.00 0.00 0.00 37 1022.6
20260509111551 14 82 4.8 16.1 0.00 0.00 0.00 37 1022.6
20260509110045 14 82 6.4 14.5 0.00 0.00 0.00 38 1022.8
20260509104544 14 93 4.8 16.1 0.00 0.00 0.00 43 1022.9
20260509103047 13 69 3.2 14.5 0.00 0.00 0.00 43 1023.1
20260509101539 13 62 8.0 16.1 0.00 0.00 0.00 40 1023.1
20260509100035 13 69 6.4 17.7 0.00 0.00 0.00 43 1023.0
20260509094534 13 94 6.4 14.5 0.00 0.00 0.00 44 1023.0
20260509093029 13 146 8.0 16.1 0.00 0.00 0.00 42 1023.0
20260509091524 12 116 6.4 14.5 0.00 0.00 0.00 45 1023.1
20260509090034 12 144 8.0 14.5 0.00 0.00 0.00 44 1023.1
20260509084517 12 84 6.4 16.1 0.00 0.00 0.00 47 1023.1
20260509083012 12 71 9.7 17.7 0.00 0.00 0.00 46 1023.2
20260509081509 12 104 6.4 16.1 0.00 0.00 0.00 47 1023.3
20260509080005 12 115 6.4 17.7 0.00 0.00 0.00 49 1023.3
20260509074614 12 71 8.0 16.1 0.00 0.00 0.00 47 1023.3
20260509073107 11 79 9.7 17.7 0.00 0.00 0.00 49 1023.3
20260509071557 11 81 6.4 14.5 0.00 0.00 0.00 54 1023.4
20260509070051 11 83 6.4 14.5 0.00 0.00 0.00 51 1023.4
20260509064544 10 114 4.8 14.5 0.00 0.00 0.00 53 1023.5
20260509063053 10 84 6.4 12.9 0.00 0.00 0.00 59 1023.5
20260509061537 9 46 8.0 14.5 0.00 0.00 0.00 61 1023.4
20260509060030 8 67 6.4 12.9 0.00 0.00 0.00 63 1023.4
20260509054527 8 65 4.8 9.7 0.00 0.00 0.00 69 1023.5
20260509053032 8 38 4.8 8.0 0.00 0.00 0.00 67 1023.6
20260509051518 7 28 1.6 6.4 0.00 0.00 0.00 67 1023.5
20260509050012 6 92 0.0 4.8 0.00 0.00 0.00 76 1023.5
20260509044507 4 98 0.0 0.0 0.00 0.00 0.00 81 1023.5
20260509043004 2 98 0.0 1.6 0.00 0.00 0.00 84 1023.6
20260509041559 1 98 0.0 0.0 0.00 0.00 0.00 86 1023.5
20260509040108 0 98 0.0 0.0 0.00 0.00 0.00 88 1023.4
20260509034555 0 98 0.0 1.6 0.00 0.00 0.00 88 1023.5
20260509033111 0 98 0.0 0.0 0.00 0.00 0.00 88 1023.6
20260509031551 0 98 0.0 0.0 0.00 0.00 0.00 87 1023.6
20260509030050 0 98 0.0 0.0 0.00 0.00 0.00 88 1023.6
20260509024558 0 98 0.0 0.0 0.00 0.00 0.00 87 1023.6
20260509023048 0 98 0.0 0.0 0.00 0.00 0.00 87 1023.6
20260509021546 0 98 0.0 0.0 0.00 0.00 0.00 87 1023.7
20260509020052 0 98 0.0 0.0 0.00 0.00 0.00 86 1023.8
20260509014544 0 98 0.0 0.0 0.00 0.00 0.00 87 1023.9
20260509013042 0 98 0.0 0.0 0.00 0.00 0.00 86 1024.0
20260509011545 0 98 0.0 0.0 0.00 0.00 0.00 86 1024.0
20260509010041 0 98 0.0 0.0 0.00 0.00 0.00 86 1024.0
20260509004539 0 98 0.0 0.0 0.00 0.00 0.00 86 1024.0
20260509003037 0 98 0.0 0.0 0.00 0.00 0.00 86 1024.2
20260509001536 0 98 0.0 0.0 0.00 0.00 0.00 85 1024.3
20260509000033 0 98 0.0 0.0 0.00 0.00 0.00 83 1024.3
20260508234532 0 98 0.0 0.0 0.00 0.00 0.00 82 1024.4
20260508233034 1 98 0.0 0.0 0.00 0.00 0.00 81 1024.4
20260508231526 1 98 0.0 0.0 0.00 0.00 0.00 79 1024.5
20260508230022 2 98 0.0 0.0 0.00 0.00 0.00 77 1024.5
20260508224522 2 98 0.0 0.0 0.00 0.00 0.00 74 1024.5
20260508223015 3 98 0.0 0.0 0.00 0.00 0.00 72 1024.5
20260508221511 5 98 0.0 4.8 0.00 0.00 0.00 67 1024.5
20260508220007 5 98 0.0 1.6 0.00 0.00 0.00 66 1024.5
20260508214521 6 98 0.0 0.0 0.00 0.00 0.00 62 1024.4
20260508213005 7 98 0.0 4.8 0.00 0.00 0.00 61 1024.5
20260508211504 7 132 1.6 4.8 0.00 0.00 0.00 61 1024.3
20260508210003 7 106 0.0 3.2 0.00 0.00 0.00 64 1024.3
20260508204502 7 154 0.0 4.8 0.00 0.00 0.00 63 1024.2
20260508203001 7 155 0.0 4.8 0.00 0.00 0.00 61 1024.2
20260508201600 7 159 1.6 4.8 0.00 0.00 0.00 58 1024.0
20260508200059 8 162 1.6 6.4 0.00 0.00 0.00 54 1023.9
20260508194607 8 144 1.6 4.8 0.00 0.00 0.00 52 1023.7
20260508193118 8 161 0.0 4.8 0.00 0.00 0.00 53 1023.7
20260508191605 9 140 1.6 6.4 0.00 0.00 0.00 52 1023.4
20260508190109 9 118 4.8 12.9 0.00 0.00 0.00 50 1023.4
20260508184552 10 130 4.8 11.3 0.00 0.00 0.00 44 1023.3
20260508183051 10 136 6.4 14.5 0.00 0.00 0.00 39 1023.2
20260508181554 11 134 4.8 12.9 0.00 0.00 0.00 38 1023.2
20260508180049 11 150 3.2 11.3 0.00 0.00 0.00 39 1023.0
20260508174550 11 128 6.4 12.9 0.00 0.00 0.00 40 1023.0
20260508173047 12 84 4.8 12.9 0.00 0.00 0.00 44 1023.0
20260508171547 12 153 6.4 12.9 0.00 0.00 0.00 44 1023.0
20260508170046 12 144 8.0 16.1 0.00 0.00 0.00 44 1022.8